Location: Arrodets-la-Barthe
(43.0306°N, 0.2829°E)
Time: 19:16:38
(UTC+00:00)

Okean-O - Pass Details

Date: 24 October 2021
Orbit: 639 x 640 km, 98.2° (Epoch: 02 December)

Event Time Altitude Azimuth Distance (km) Brightness Sun altitude
Exits shadow 19:40:19 45° 290° (WNW) 870 3.6 -29.5°
Drops below altitude 10° 19:43:59 10° 336° (NNW) 2,041 5.6 -30.2°
Sets 19:46:15 0° 342° (NNW) 2,955 6.4 -30.6°
